Regional Weather Roundup
Issued by NWS

Home | Current Version | Previous Version | Text Only | Print | Product List | Glossary Off
Versions: 1 2 3 4 5 6 7 8 9 10 11 12 13 14 15 16 17 18 19 20 21 22 23 24 25 26 27 28 29 30 31 32 33 34 35 36 37 38 39 40 41 42 43 44 45 46 47 48 49 50

000
ASUS45 KPSR 281810
RWRAZ

ARIZONA REGIONAL HOURLY WEATHER ROUNDUP
NATIONAL WEATHER SERVICE PHOENIX AZ
1100 AM MST SAT MAR 28 2015

NOTE: FAIR INDICATES FEW OR NO CLOUDS BELOW 12,000 FEET WITH NO
SIGNIFICANT WEATHER AND/OR OBSTRUCTIONS TO VISIBILITY.

AZZ001>003-036-281900-
NORTHWEST ARIZONA

CITY           SKY/WX    TMP DP  RH WIND       PRES   REMARKS
BULLHEAD CITY  SUNNY     81  27  13 S5        30.06F
KINGMAN        SUNNY     79  23  12 SW8       30.17S
6HR MIN TEMP:  47; 6HR MAX TEMP:  80;

$$

AZZ004>008-015-016-018-281900-
NORTH CENTRAL ARIZONA

CITY           SKY/WX    TMP DP  RH WIND       PRES   REMARKS
GRAND CANYON   SUNNY     65  19  17 W7        30.33S
6HR MIN TEMP:  24; 6HR MAX TEMP:  66;

WILLIAMS       SUNNY     66  12  12 SW12      30.40S
PRESCOTT       SUNNY     72  21  14 VRB3      30.26F
6HR MIN TEMP:  38; 6HR MAX TEMP:  73;

FLAGSTAFF      SUNNY     66   5   9 SW15      30.34S
6HR MIN TEMP:  27; 6HR MAX TEMP:  66;

PAYSON         SUNNY     72  19  14 NW6G13    30.29S
PAGE           SUNNY     69  23  17 CALM      30.20F
6HR MIN TEMP:  51; 6HR MAX TEMP:  69;

$$

AZZ009>014-017-281900-
NORTHEAST ARIZONA

CITY           SKY/WX    TMP DP  RH WIND       PRES   REMARKS
WINSLOW        SUNNY     71  17  12 CALM      30.24F
6HR MIN TEMP:  35; 6HR MAX TEMP:  72;

SAINT JOHNS    SUNNY     70  18  13 VRB5      30.26F
6HR MIN TEMP:  33; 6HR MAX TEMP:  71;

WINDOW ROCK    SUNNY     71   7   8 SW9G17    30.29F
6HR MIN TEMP:  25; 6HR MAX TEMP:  71;

SHOW LOW       SUNNY     68  10  10 S9        30.32F
$$

AZZ023-281900-
GREATER PHOENIX AREA

CITY           SKY/WX    TMP DP  RH WIND       PRES   REMARKS
PHOENIX        SUNNY     83  26  12 SE6       30.07F
6HR MIN TEMP:  64; 6HR MAX TEMP:  83;

BUCKEYE        SUNNY     82  36  18 SE8       30.07F
GLENDALE       SUNNY     81  34  18 E3        30.09F
LUKE AFB       SUNNY     81  34  18 CALM      30.07F
6HR MIN TEMP:  55; 6HR MAX TEMP:  81; 6HR PCP: TRACE;

DEER VALLEY    SUNNY     81  28  14 CALM      30.08F
6HR MIN TEMP:  57; 6HR MAX TEMP:  81;

SCOTTSDALE     SUNNY     82  28  14 SE3       30.10F
6HR MIN TEMP:  57; 6HR MAX TEMP:  82;

MESA-FALCON    SUNNY     82  27  13 SE6         N/A
MESA-GATEWAY   SUNNY     81  28  15 CALM      30.11F
CHANDLER       SUNNY     81  28  15 CALM      30.09F
$$

AZZ027-028-281900-
SOUTHWEST MARICOPA COUNTY AND PINAL COUNTY

CITY           SKY/WX    TMP DP  RH WIND       PRES   REMARKS
CASA GRANDE    SUNNY     81  28  15 CALM      30.08F
6HR MIN TEMP:  54; 6HR MAX TEMP:  81;

GILA BEND      FAIR      84  29  13 N8        30.05S
6HR MIN TEMP:  57; 6HR MAX TEMP:  84;

$$

AZZ503-504-507>509-281900-
SOUTHEAST ARIZONA

CITY           SKY/WX    TMP DP  RH WIND       PRES   REMARKS
TUCSON         SUNNY     82  20  10 CALM      30.16F
6HR MIN TEMP:  53; 6HR MAX TEMP:  82;

DAVIS-MONTHAN  SUNNY     81  22  11 CALM      30.14F
6HR MIN TEMP:  51; 6HR MAX TEMP:  82;

RYAN FIELD       N/A     86  32  14 CALM      30.15F
NOGALES        SUNNY     80  19  10 VRB3      30.21F
6HR MIN TEMP:  43; 6HR MAX TEMP:  80;

SIERRA VISTA   SUNNY     76  14   9 VRB2      30.25F
6HR MIN TEMP:  49; 6HR MAX TEMP:  76;

DOUGLAS        SUNNY     79  22  12 N3        30.22F
6HR MIN TEMP:  37; 6HR MAX TEMP:  79;

SAFFORD        SUNNY     75  20  12 CALM      30.16F
6HR MIN TEMP:  42; 6HR MAX TEMP:  75;

$$

AZZ020-021-025-026-031-281900-
SOUTHWEST ARIZONA

CITY           SKY/WX    TMP DP  RH WIND       PRES   REMARKS
YUMA           SUNNY     86  44  23 CALM      30.01F
6HR MIN TEMP:  62; 6HR MAX TEMP:  86;

$$

CAZ031-033-041-043-047-048-061-281900-
SOUTHERN CALIFORNIA

CITY           SKY/WX    TMP DP  RH WIND       PRES   REMARKS
DOWNTOWN L.A.  SUNNY     74  56  53 CALM      30.06F
6HR MIN TEMP:  61; 6HR MAX TEMP:  76;

L.A. AIRPORT   MOSUNNY   71  56  58 VRB5      30.08S
6HR MIN TEMP:  57; 6HR MAX TEMP:  71;

SAN DIEGO      MOSUNNY   72  56  57 NW9       30.08S
BURBANK        SUNNY     77  46  33 SE5       30.07F
6HR MIN TEMP:  58; 6HR MAX TEMP:  77;

ONTARIO        SUNNY     80  33  18 VRB3      30.08F
6HR MIN TEMP:  58; 6HR MAX TEMP:  80;

RIVERSIDE      SUNNY     80  33  18 CALM      30.08S HAZE
6HR MIN TEMP:  54; 6HR MAX TEMP:  80;

PALM SPRINGS   SUNNY     89  23   9 S5        30.03F
6HR MIN TEMP:  64; 6HR MAX TEMP:  90;

EL CENTRO NAS  SUNNY     90  38  16 E6        30.00S
6HR MIN TEMP:  59; 6HR MAX TEMP:  90;

IMPERIAL       SUNNY     87  40  19 E3        30.00S
6HR MIN TEMP:  59; 6HR MAX TEMP:  87;

BLYTHE         SUNNY     81  35  19 SE3       30.04S
6HR MIN TEMP:  60; 6HR MAX TEMP:  81;

NEEDLES        SUNNY     85  24  11 CALM      30.05F
6HR MIN TEMP:  61; 6HR MAX TEMP:  85;

$$

NVZ020-UTZ003-281900-
SOUTHERN NEVADA-UTAH

CITY           SKY/WX    TMP DP  RH WIND       PRES   REMARKS
LAS VEGAS      SUNNY     77  25  14 S5        30.06F
6HR MIN TEMP:  62; 6HR MAX TEMP:  78;

SALT LAKE CITY MOSUNNY   69  31  24 NW7       30.14R
6HR MIN TEMP:  49; 6HR MAX TEMP:  70;

$$

NMZ009-TXZ055-281900-
NEW MEXICO-WEST TEXAS

CITY           SKY/WX    TMP DP  RH WIND       PRES   REMARKS
ALBUQUERQUE    SUNNY     69  21  16 CALM      30.25F
6HR MIN TEMP:  46; 6HR MAX TEMP:  69;

EL PASO        SUNNY     76  19  11 CALM      30.18F
6HR MIN TEMP:  53; 6HR MAX TEMP:  77;

$$


........................KEY........................
SKY/WX - SKY CONDITION/WEATHER
TMP    - TEMPERATURE IN FAHRENHEIT
DP     - DEW POINT IN FAHRENHEIT
RH     - RELATIVE HUMIDITY IN PERCENT
WIND   - DIRECTION AND SPEED IN MILES PER HOUR (MPH)
VRB    - VARIABLE WIND DIRECTION
PRES   - MEAN SEA LEVEL PRESSURE IN INCHES OF MERCURY
         F - FALLING PRESSURE   R - RISING PRESSURE
         S - STEADY PRESSURE
VSB    - VISIBILITY IN MILES
HX     - HEAT INDEX IN FAHRENHEIT
WCI    - WIND CHILL INDEX IN FAHRENHEIT
TC     - TEMPERATURE IN CELSIUS WHICH IS ALSO KNOWN AS
         TEMPERATURE IN CENTIGRADE
AFB    - AIR FORCE BASE
         LUKE AFB IS LUKE AIR FORCE BASE
         DAVIS-MONTHAN IS DAVIS-MONTHAN AIR FORCE BASE
NAS    - NAVAL AIR STATION
         EL CENTRO NAS IS EL CENTRO NAVAL AIR STATION
N/A    - NOT AVAILABLE



USA.gov is the U.S. government's official web portal to all federal, state and local government web resources and services.